This demonstration page uses our WeatherBlox Daily Observations layout. Learn more.

Left ArrowRight Arrow

Hourly Observations for August 13, 2017

Temp ( °F °C ) Dew Point ( °F °C ) Humidity (%) Winds ( mph kmh ) Pressure ( in mb ) Visibility ( mi km ) Precip ( " mm )
12:53 am 00:53 Clear 63 17.2 57 13.9 81 81 N 3 6 30.04 1017 10 16 0.00 0.00
1:53 am 01:53 Clear 63 17.2 57 13.9 81 81 undefined N/A 30.05 1018 10 16 0.00 0.00
2:53 am 02:53 Clear 62 16.7 57 13.9 84 84 Calm 30.04 1017 10 16 0.00 0.00
3:53 am 03:53 Clear 61 16.1 57 13.9 87 87 Calm 30.04 1017 10 16 0.00 0.00
4:53 am 04:53 Clear 59 15 56 13.3 90 90 Calm 30.03 1017 10 16 0.00 0.00
5:53 am 05:53 Clear 60 15.6 56 13.3 86 86 Calm 30.04 1017 10 16 0.00 0.00
6:53 am 06:53 Clear 59 15 56 13.3 90 90 Calm 30.04 1017 10 16 0.00 0.00
7:53 am 07:53 Sunny 60 15.6 57 13.9 90 90 Calm 30.06 1018 10 16 0.00 0.00
8:53 am 08:53 Sunny 65 18.3 59 15 81 81 E 5 7 30.06 1018 10 16 0.00 0.00
9:53 am 09:53 Sunny 68 20 59 15 73 73 E 3 6 30.06 1018 10 16 0.00 0.00
10:53 am 10:53 Sunny 73 22.8 60 15.6 64 64 E 3 6 30.06 1018 10 16 0.00 0.00
11:53 am 11:53 Mostly Sunny 76 24.4 60 15.6 58 58 E 6 9 30.05 1018 10 16 0.00 0.00
12:53 pm 12:53 Partly Cloudy 78 25.6 57 13.9 48 48 undefined N/A 30.05 1018 10 16 0.00 0.00
1:53 pm 13:53 Sunny 77 25 56 13.3 48 48 SSE 5 7 30.04 1017 10 16 0.00 0.00
2:53 pm 14:53 Mostly Cloudy 81 27.2 56 13.3 42 42 VRB 5 7 30.01 1016 10 16 0.00 0.00
3:53 pm 15:53 Mostly Sunny 82 27.8 53 11.7 37 37 S 6 9 30.00 1016 10 16 0.00 0.00
4:53 pm 16:53 Sunny 81 27.2 54 12.2 39 39 SE 6 9 29.98 1015 10 16 0.00 0.00
5:53 pm 17:53 Mostly Sunny 81 27.2 53 11.7 38 38 Calm 29.98 1015 10 16 0.00 0.00
6:53 pm 18:53 Partly Cloudy 80 26.7 55 12.8 42 42 S 5 7 29.97 1015 10 16 0.00 0.00
7:53 pm 19:53 Partly Cloudy 78 25.6 55 12.8 45 45 SSE 5 7 29.96 1014 10 16 0.00 0.00
8:53 pm 20:53 Partly Cloudy 76 24.4 56 13.3 50 50 SSE 3 6 29.96 1015 10 16 0.00 0.00
9:53 pm 21:53 Clear 73 22.8 57 13.9 57 57 undefined N/A 29.96 1015 10 16 0.00 0.00
10:53 pm 22:53 Clear 72 22.2 57 13.9 59 59 Calm 29.96 1015 10 16 0.00 0.00
11:53 pm 23:53 Clear 70 21.1 61 16.1 73 73 Calm 29.96 1014 10 16 0.00 0.00

Powered by AerisWeather